This demonstration page uses our WeatherBlox Daily Observations layout. Learn more.

Left ArrowRight Arrow

39.08367, -84.50855

Hourly Observations for April 9, 2017

Temp ( °F °C ) Dew Point ( °F °C ) Humidity (%) Winds ( mph kmh ) Pressure ( in mb ) Visibility ( mi km ) Precip ( " mm )
12:53 am 00:53 Clear 45 7.2 41 5 86 86 Calm 30.06 1018 10 16.0934 0 0
1:53 am 01:53 Clear 42 5.6 40 4.4 92 92 Calm 30.04 1017 10 16.0934 0 0
2:53 am 02:53 Clear 41 5 41 5 100 100 Calm 30.05 1018 10 16.0934 0 0
3:53 am 03:53 Clear 39 3.9 39 3.9 100 100 Calm 30.04 1017 10 16.0934 0 0
4:53 am 04:53 Clear 39 3.9 39 3.9 100 100 Calm 30.06 1018 10 16.0934 0 0
5:53 am 05:53 Clear 39 3.9 39 3.9 100 100 Calm 30.07 1018 10 16.0934 0 0
6:53 am 06:53 Clear 39 3.9 39 3.9 100 100 Calm 30.08 1019 10 16.0934 0 0
7:53 am 07:53 Sunny 39 3.9 39 3.9 100 100 Calm 30.09 1019 10 16.0934 0 0
8:53 am 08:53 Sunny 48 8.9 42 5.6 80 80 W 5 7 30.09 1019 10 16.0934 0 0
9:53 am 09:53 Sunny 56 13.3 40 4.4 55 55 SSW 7 11 30.08 1019 10 16.0934 0 0
10:53 am 10:53 Sunny 61 16.1 39 3.9 44 44 S 10 17 30.07 1018 10 16.0934 0 0
11:53 am 11:53 Sunny 67 19.4 43 6.1 42 42 S 10 17 30.05 1018 10 16.0934 0 0
12:53 pm 12:53 Sunny 72 22.2 45 7.2 38 38 SSW 8 13 30.03 1017 10 16.0934 0 0
1:53 pm 13:53 Sunny 74 23.3 45 7.2 36 36 S 12 19 30 1016 10 16.0934 0 0
2:53 pm 14:53 Sunny 75 23.9 44 6.7 33 33 SSW 16 26 29.98 1015 10 16.0934 0 0
3:53 pm 15:53 Sunny 75 23.9 44 6.7 33 33 S 18 30 29.96 1015 10 16.0934 0 0
4:53 pm 16:53 Sunny 76 24.4 42 5.6 30 30 S 18 30 29.93 1014 10 16.0934 0 0
5:53 pm 17:53 Sunny 75 23.9 41 5 29 29 SSW 17 28 29.92 1013 10 16.0934 0 0
6:53 pm 18:53 Sunny 74 23.3 41 5 31 31 S 16 26 29.93 1013 10 16.0934 0 0
7:53 pm 19:53 Sunny 72 22.2 38 3.3 29 29 S 14 22 29.93 1014 10 16.0934 0 0
8:53 pm 20:53 Clear 66 18.9 40 4.4 39 39 S 12 19 29.93 1014 10 16.0934 0 0
9:53 pm 21:53 Clear 64 17.8 40 4.4 41 41 SSW 9 15 29.94 1014 10 16.0934 0 0
10:53 pm 22:53 Clear 63 17.2 41 5 45 45 S 9 15 29.94 1014 10 16.0934 0 0
11:53 pm 23:53 Clear 63 17.2 41 5 45 45 S 12 19 29.94 1014 10 16.0934 0 0

Powered by AerisWeather